Flag for U.S.A. Weather past 2 weeks in Milwaukee, Wisconsin, U.S.A.

Now
32 °F

Mostly cloudy.


Feels Like: 21 °F
Forecast: 14 / 21 °F
Wind: 17 mph from North

Location: Milwaukee / Timmerman

Current Time: Jan 29, 2015 at 8:54:25 PM

Latest Report: Jan 29, 2015 at 8:15 PM


Visibility: 10 mi

Pressure: 30.22 "Hg

Humidity: 55%

Dew point: 18 °F

Location of MilwaukeeLocation

Historic Weather in Milwaukee — Graph

°F

Milwaukee temperature yesterday

Maximum temperature yesterday: 34 °F (at 12:45 PM)
Minimum temperature yesterday: 21 °F (at 6:45 AM)
Average temperature yesterday: 28 °F

Past Weeks' High & Low Weather Summary

 TemperatureHumidityPressure
High41 °F (Jan 17, 10:45 AM)93% (Jan 20, 4:15 AM)30.43 "Hg (Jan 20, 4:15 AM)
Low14 °F (Jan 26, 1:55 AM)47% (Jan 27, 11:45 AM)29.52 "Hg (Jan 17, 2:45 PM)
Average29 °F76%29.97 "Hg
* Reported Jan 14 7:45 PM — Jan 29 7:45 PM, Milwaukee, Weather by CustomWeather, © 2014

Note: Actual official high and low records may vary slightly from our data, if they occured in-between our weather recording intervals... More about our weather records

Advertising

Milwaukee weather history for previous 24 hours

 ConditionsComfort  
Time TempWeatherWind HumidityBarometerVisibility
7:45 PM
Jan 29
32 °FLight snow. Overcast.18 mph55%30.20 "Hg7 mi
6:45 PM34 °FOvercast.14 mph51%30.16 "Hg10 mi
4:45 PM34 °FOvercast.14 mph60%30.07 "Hg10 mi
3:45 PM34 °FOvercast.15 mph65%30.03 "Hg10 mi
2:45 PM34 °FOvercast.17 mph65%30.00 "Hg10 mi
1:45 PM34 °FOvercast.14 mph70%29.96 "Hg10 mi
12:45 PM34 °FOvercast.13 mph70%29.94 "Hg7 mi
11:45 AM32 °FOvercast.17 mph75%29.92 "Hg7 mi
10:45 AM32 °FOvercast.16 mph75%29.90 "Hg10 mi
9:45 AM30 °FOvercast.15 mph80%29.88 "Hg7 mi
8:45 AM30 °FLight snow. More clouds than sun.13 mph86%29.84 "Hg1 mi
7:45 AM30 °FLight snow. Overcast.13 mph86%29.81 "Hg3 mi
6:45 AM32 °FOvercast.6 mph75%29.78 "Hg10 mi
5:35 AM32 °FOvercast.6 mph80%29.74 "Hg10 mi
5:15 AM32 °FOvercast.5 mph80%29.74 "Hg10 mi
4:55 AM32 °FOvercast.3 mph80%29.73 "Hg10 mi
4:35 AM32 °FOvercast.No wind80%29.73 "Hg10 mi
4:15 AM32 °FOvercast.No wind80%29.73 "Hg10 mi
3:55 AM32 °FOvercast.3 mph80%29.74 "Hg10 mi
3:35 AM32 °FOvercast.3 mph80%29.75 "Hg10 mi
3:15 AM32 °FOvercast.No wind80%29.76 "Hg10 mi
2:55 AM32 °FOvercast.No wind80%29.76 "Hg10 mi
2:35 AM32 °FMostly cloudy.3 mph80%29.77 "Hg10 mi
2:15 AM32 °FOvercast.No wind80%29.78 "Hg10 mi
1:55 AM32 °FOvercast.No wind75%29.78 "Hg10 mi
1:35 AM32 °FOvercast.No wind75%29.78 "Hg10 mi
1:15 AM32 °FMostly cloudy.No wind69%29.78 "Hg10 mi
12:55 AM32 °FOvercast.3 mph69%29.79 "Hg10 mi
12:35 AM32 °FMostly cloudy.6 mph69%29.80 "Hg10 mi
12:15 AM32 °FOvercast.6 mph69%29.81 "Hg10 mi
11:55 PM
Jan 28
32 °FLight snow. Mostly cloudy.9 mph64%29.82 "Hg10 mi
11:35 PM32 °FOvercast.7 mph64%29.82 "Hg10 mi
11:15 PM32 °FPassing clouds.7 mph64%29.84 "Hg10 mi
10:55 PM32 °FPassing clouds.8 mph64%29.85 "Hg10 mi
10:15 PM32 °FClear.8 mph64%29.87 "Hg10 mi
9:55 PM32 °FPassing clouds.9 mph64%29.88 "Hg10 mi
9:15 PM32 °FPassing clouds.14 mph64%29.89 "Hg10 mi
8:55 PM32 °FClear.13 mph64%29.91 "Hg10 mi
8:35 PM32 °FClear.12 mph64%29.93 "Hg10 mi
8:15 PM32 °FClear.14 mph64%29.92 "Hg10 mi
Weather by CustomWeather, © 2014

See weather overviewHow to use our weather pages